| time (UTC) | temp C | wind direction | speed KPH | gust KPH | rain 1hr cm | rain 24hr cm | rain mn cm | humidity % | barometer mb |
| 20260508180018 | 18 | 288 | 4.8 | 9.7 | 0.00 | 0.00 | 0.00 | 50 | 1017.6 |
| 20260508174520 | 20 | 311 | 3.2 | 6.4 | 0.00 | 0.00 | 0.00 | 47 | 1017.3 |
| 20260508173020 | 20 | 327 | 4.8 | 8.0 | 0.00 | 0.00 | 0.00 | 47 | 1017.0 |
| 20260508171517 | 20 | 323 | 3.2 | 8.0 | 0.00 | 0.00 | 0.00 | 46 | 1016.8 |
| 20260508170030 | 20 | 321 | 3.2 | 8.0 | 0.00 | 0.00 | 0.00 | 46 | 1016.6 |
| 20260508164524 | 20 | 342 | 3.2 | 8.0 | 0.00 | 0.00 | 0.00 | 45 | 1016.4 |
| 20260508163025 | 21 | 329 | 4.8 | 8.0 | 0.00 | 0.00 | 0.00 | 43 | 1016.4 |
| 20260508161501 | 21 | 286 | 4.8 | 11.3 | 0.00 | 0.00 | 0.00 | 42 | 1016.2 |
| 20260508160003 | 21 | 319 | 6.4 | 12.9 | 0.00 | 0.00 | 0.00 | 40 | 1016.1 |
| 20260508154502 | 21 | 317 | 4.8 | 14.5 | 0.00 | 0.00 | 0.00 | 38 | 1015.9 |
| 20260508153009 | 22 | 291 | 8.0 | 16.1 | 0.00 | 0.00 | 0.00 | 36 | 1016.0 |
| 20260508151508 | 22 | 311 | 8.0 | 17.7 | 0.00 | 0.00 | 0.00 | 34 | 1015.9 |
| 20260508150003 | 23 | 301 | 8.0 | 19.3 | 0.00 | 0.00 | 0.00 | 33 | 1015.9 |
| 20260508144507 | 23 | 333 | 8.0 | 16.1 | 0.00 | 0.00 | 0.00 | 33 | 1015.9 |
| 20260508143006 | 24 | 246 | 4.8 | 12.9 | 0.00 | 0.00 | 0.00 | 32 | 1015.9 |
| 20260508141510 | 24 | 280 | 6.4 | 11.3 | 0.00 | 0.00 | 0.00 | 33 | 1015.9 |
| 20260508140018 | 24 | 265 | 4.8 | 12.9 | 0.00 | 0.00 | 0.00 | 33 | 1016.0 |
| 20260508134506 | 24 | 297 | 3.2 | 12.9 | 0.00 | 0.00 | 0.00 | 31 | 1015.9 |
| 20260508133021 | 24 | 0.0 | 0.0 | 0.00 | 0.00 | 0.00 | 32 | 1015.9 | |
| 20260508131522 | 25 | 150 | 4.8 | 12.9 | 0.00 | 0.00 | 0.00 | 32 | 1015.9 |
| 20260508130017 | 25 | 153 | 6.4 | 12.9 | 0.00 | 0.00 | 0.00 | 31 | 1015.9 |
| 20260508124524 | 25 | 238 | 0.0 | 14.5 | 0.00 | 0.00 | 0.00 | 32 | 1016.0 |
| 20260508123007 | 24 | 180 | 1.6 | 14.5 | 0.00 | 0.00 | 0.00 | 33 | 1016.1 |
| 20260508121504 | 25 | 128 | 8.0 | 16.1 | 0.00 | 0.00 | 0.00 | 30 | 1016.2 |
| 20260508120005 | 24 | 192 | 3.2 | 11.3 | 0.00 | 0.00 | 0.00 | 30 | 1016.2 |
| 20260508114510 | 23 | 101 | 8.0 | 16.1 | 0.00 | 0.00 | 0.00 | 29 | 1016.3 |
| 20260508111501 | 23 | 5 | 3.2 | 14.5 | 0.00 | 0.00 | 0.00 | 31 | 1016.7 |
| 20260508103016 | 22 | 133 | 11.3 | 19.3 | 0.00 | 0.00 | 0.00 | 33 | 1017.2 |
| 20260508100004 | 24 | 128 | 4.8 | 19.3 | 0.00 | 0.00 | 0.00 | 32 | 1017.2 |
| 20260508094505 | 23 | 248 | 3.2 | 11.3 | 0.00 | 0.00 | 0.00 | 33 | 1017.2 |
| 20260508093009 | 22 | 96 | 6.4 | 20.9 | 0.00 | 0.00 | 0.00 | 36 | 1017.4 |
| 20260508091525 | 22 | 298 | 4.8 | 17.7 | 0.00 | 0.00 | 0.00 | 36 | 1017.5 |
| 20260508090020 | 21 | 115 | 6.4 | 16.1 | 0.00 | 0.00 | 0.00 | 36 | 1017.8 |
| 20260508081516 | 21 | 186 | 8.0 | 16.1 | 0.00 | 0.00 | 0.00 | 34 | 1018.1 |
| 20260508080020 | 21 | 185 | 9.7 | 14.5 | 0.00 | 0.00 | 0.00 | 36 | 1018.0 |
| 20260508073005 | 20 | 180 | 4.8 | 14.5 | 0.00 | 0.00 | 0.00 | 35 | 1018.1 |
| 20260508071515 | 20 | 95 | 3.2 | 12.9 | 0.00 | 0.00 | 0.00 | 34 | 1018.1 |
| 20260508070020 | 20 | 28 | 4.8 | 12.9 | 0.00 | 0.00 | 0.00 | 33 | 1018.3 |
| 20260508064527 | 20 | 24 | 1.6 | 8.0 | 0.00 | 0.00 | 0.00 | 33 | 1018.1 |
| 20260508061510 | 20 | 107 | 1.6 | 4.8 | 0.00 | 0.00 | 0.00 | 36 | 1018.4 |
| 20260508051504 | 18 | 169 | 1.6 | 8.0 | 0.00 | 0.00 | 0.00 | 49 | 1018.5 |
| 20260508050012 | 17 | 225 | 1.6 | 6.4 | 0.00 | 0.00 | 0.00 | 51 | 1018.6 |
| 20260508044518 | 16 | 205 | 1.6 | 8.0 | 0.00 | 0.00 | 0.00 | 54 | 1018.7 |
| 20260508043023 | 16 | 219 | 1.6 | 6.4 | 0.00 | 0.00 | 0.00 | 56 | 1018.7 |
| 20260508041523 | 15 | 201 | 6.4 | 11.3 | 0.00 | 0.00 | 0.00 | 55 | 1018.5 |
| 20260508040008 | 15 | 200 | 6.4 | 9.7 | 0.00 | 0.00 | 0.00 | 54 | 1018.4 |
| 20260508034515 | 16 | 204 | 1.6 | 8.0 | 0.00 | 0.00 | 0.00 | 50 | 1018.1 |
| 20260508033019 | 15 | 234 | 3.2 | 11.3 | 0.00 | 0.00 | 0.00 | 54 | 1018.2 |
| 20260508030028 | 13 | 245 | 4.8 | 8.0 | 0.00 | 0.00 | 0.00 | 59 | 1017.8 |
| 20260508023017 | 13 | 207 | 4.8 | 12.9 | 0.00 | 0.00 | 0.00 | 57 | 1017.6 |
| 20260508014526 | 12 | 265 | 1.6 | 8.0 | 0.00 | 0.00 | 0.00 | 60 | 1017.3 |
| 20260508013014 | 13 | 245 | 4.8 | 11.3 | 0.00 | 0.00 | 0.00 | 60 | 1017.1 |
| 20260508011502 | 12 | 346 | 1.6 | 6.4 | 0.00 | 0.00 | 0.00 | 62 | 1017.1 |
| 20260508010006 | 12 | 228 | 3.2 | 8.0 | 0.00 | 0.00 | 0.00 | 63 | 1017.2 |
| 20260508004513 | 13 | 213 | 1.6 | 6.4 | 0.00 | 0.00 | 0.00 | 62 | 1017.2 |
| 20260508000006 | 12 | 259 | 4.8 | 11.3 | 0.00 | 0.00 | 0.00 | 63 | 1017.4 |
| 20260507233015 | 13 | 196 | 4.8 | 9.7 | 0.00 | 0.00 | 0.00 | 63 | 1017.4 |
| 20260507231519 | 13 | 225 | 3.2 | 6.4 | 0.00 | 0.00 | 0.00 | 63 | 1017.4 |
| 20260507230025 | 13 | 212 | 1.6 | 4.8 | 0.00 | 0.00 | 0.00 | 62 | 1017.5 |
| 20260507223011 | 14 | 223 | 0.0 | 4.8 | 0.00 | 0.00 | 0.00 | 59 | 1017.5 |
| 20260507214530 | 15 | 222 | 1.6 | 6.4 | 0.00 | 0.00 | 0.00 | 59 | 1017.7 |
| 20260507211513 | 15 | 239 | 3.2 | 6.4 | 0.00 | 0.00 | 0.00 | 59 | 1017.9 |
| 20260507210017 | 15 | 186 | 1.6 | 3.2 | 0.00 | 0.00 | 0.00 | 56 | 1018.0 |
| 20260507203032 | 15 | 208 | 0.0 | 4.8 | 0.00 | 0.00 | 0.00 | 55 | 1017.9 |
| 20260507201509 | 16 | 253 | 1.6 | 4.8 | 0.00 | 0.00 | 0.00 | 53 | 1017.8 |
| 20260507200018 | 16 | 242 | 1.6 | 6.4 | 0.00 | 0.00 | 0.00 | 52 | 1017.6 |
| 20260507194519 | 16 | 202 | 3.2 | 8.0 | 0.00 | 0.00 | 0.00 | 52 | 1017.6 |
| 20260507191526 | 16 | 200 | 4.8 | 12.9 | 0.00 | 0.00 | 0.00 | 50 | 1017.8 |
| 20260507190013 | 17 | 166 | 4.8 | 11.3 | 0.00 | 0.00 | 0.00 | 49 | 1017.6 |
| 20260507184516 | 17 | 213 | 1.6 | 11.3 | 0.00 | 0.00 | 0.00 | 50 | 1017.6 |
| 20260507181526 | 17 | 194 | 3.2 | 12.9 | 0.00 | 0.00 | 0.00 | 48 | 1017.5 |